CAPE
0 0 0 0 0 0 0 0 0 0 0 0 0 0 0 0 0 0 0 0 0 0 0 0 0 0 0 0 0 0 1 0 0 0 51 710 1160 1618 1626 2052 2321 2282 2327 2298 2142 2267 2216 1997 1799 1786 1790 1882 1850 1751 2027 1776 1781 1754 1320 1342 1231 1241 1288 1208 933 964 1482 2122 1458 1077 928 718 745 586 708 648 662 717 778 785 760 934 896 1000 1145 1252
0 0 0 0 0 0 0 0 0 0 0 0 0 0 0 0 0 0 0 0 0 0 0 0 0 0 0 0 0 0 2 0 2 11 198 714 1136 1599 1796 1906 2290 2408 2318 2138 2360 2134 2288 1983 2064 2099 2091 2065 2248 1711 1913 2066 2084 1797 1278 1703 1480 1245 1459 1392 1162 1260 1948 1171 764 920 939 546 371 473 479 232 276 256 664 716 790 836 915 1025 1013 1132
0 0 0 0 0 0 0 0 0 0 0 0 0 0 0 0 0 0 0 1 0 0 0 0 0 0 0 0 0 0 15 48 20 62 534 520 944 1485 1934 1781 2175 2324 2363 2286 2385 2398 2405 2275 2171 2185 2216 1820 2188 2121 1989 2293 2014 2072 1829 1826 1616 1573 1436 1460 1150 1536 1686 1184 1180 1212 804 614 574 527 499 322 320 340 462 830 713 951 968 818 770 1021
0 0 0 0 0 0 0 0 0 0 0 0 0 0 0 0 0 0 5 0 0 0 0 0 0 0 0 0 0 0 154 125 40 22 398 444 911 1463 1727 1821 2067 2281 2425 2331 2407 2404 2431 2478 2386 2374 2080 1757 1818 1904 2077 2177 2107 1816 1873 1783 1598 1498 1574 1204 1203 1204 1920 1622 1628 1199 1008 811 640 724 460 542 468 203 201 613 632 689 843 750 611 482
0 0 0 0 0 0 0 0 0 0 0 0 0 0 0 0 0 0 1 0 0 0 0 0 0 9 0 0 0 0 49 28 26 160 351 607 824 1434 1786 1945 1932 2019 2389 2242 2374 2453 2556 2466 2469 2312 2243 1863 1760 1851 1986 2108 2141 1780 1903 1956 1494 1219 999 933 1261 1284 1890 1901 1605 1341 1330 1129 697 524 519 285 260 231 19 83 361 588 737 604 519 438
0 1 0 0 0 0 0 0 0 0 0 0 0 0 0 0 0 0 0 0 0 0 0 0 0 0 0 0 12 0 40 206 253 442 472 742 832 1450 1619 1687 1949 2179 2385 2011 2023 2471 2653 2595 2252 2363 2419 2096 1819 1800 1566 1795 2247 1820 1923 1806 1240 1067 784 1082 1091 877 1474 1737 1751 1361 1142 732 802 933 846 421 57 65 169 0 30 378 651 561 438 407
0 0 0 0 0 0 0 0 0 0 0 0 0 0 0 0 0 0 0 0 14 2 6 0 0 0 0 3 51 9 40 84 532 445 497 666 836 1337 1458 1644 1792 1950 1896 1721 1853 2315 2517 2505 2298 2415 2593 2295 1801 1600 1456 1632 2376 2320 2055 1832 1438 957 907 1044 877 1350 1438 1486 1079 1124 854 906 970 1110 795 634 539 200 0 0 9 214 629 341 312 326
0 0 0 0 0 0 0 0 0 0 0 0 0 0 0 0 0 0 0 0 2 0 42 0 0 0 0 42 142 96 155 270 243 354 392 372 871 1062 1408 1168 1781 1863 1842 1496 1191 1749 2318 2617 2596 2434 2760 2559 2261 1840 1361 1626 1928 2248 2158 1465 1440 1111 857 721 940 1663 1815 1333 1152 1040 882 875 819 762 632 670 426 111 6 0 0 91 306 324 295 151
0 0 0 0 0 0 0 0 0 0 0 0 0 0 0 0 0 0 0 6 1 0 33 26 25 0 0 89 142 99 268 174 231 345 348 257 356 1052 1212 1512 1648 1716 1485 1148 1424 1923 1675 2650 2740 2482 2500 2444 2610 2327 1791 943 1337 1302 1111 1305 1171 1060 845 936 1124 1738 1647 1084 1199 1196 850 789 652 544 775 366 88 92 92 145 122 146 188 436 358 296
0 0 0 0 0 0 0 0 0 0 0 0 0 0 0 0 0 0 0 0 1 0 49 182 62 0 0 112 170 299 193 82 67 211 375 677 480 1122 1674 1531 1265 1151 1239 1303 1125 1243 1941 2389 2830 2661 2572 2406 1823 1646 1302 1193 1059 876 812 936 568 903 772 962 1586 1899 1462 1456 1609 1546 1050 840 604 617 468 330 262 172 164 214 269 146 220 29 18 106
2 0 0 0 0 0 0 0 0 0 0 0 0 0 0 0 0 0 0 0 0 3 31 59 90 0 56 110 93 106 79 85 188 833 740 605 802 838 1084 1233 1713 1479 1509 1516 1256 1404 1609 1473 2306 2841 2218 2034 1714 1349 1684 918 1159 1320 934 1027 942 992 826 870 1542 1216 1796 1361 1647 1201 993 828 799 686 538 380 323 177 230 147 193 374 311 281 159 141
0 0 0 0 0 0 0 0 0 0 0 0 0 0 0 0 0 0 0 0 0 0 44 54 138 63 3 266 37 23 20 77 437 256 468 394 325 701 929 1060 1593 1669 1493 1546 1637 1480 1884 1580 1966 1670 1875 1965 1533 859 936 1060 1093 1229 1084 1038 718 772 565 775 1025 1215 1014 1214 1317 1131 1040 996 981 784 606 406 418 194 164 182 247 124 93 148 56 143
0 0 0 0 0 0 0 0 0 0 0 0 0 0 0 0 0 0 0 0 0 34 56 52 101 122 4 286 395 18 359 464 90 155 183 267 336 426 667 1044 1100 1490 1483 1447 1310 1214 1580 1443 1810 1920 2080 1501 1150 996 1336 1277 1118 808 968 1099 900 679 698 686 805 1032 962 1046 1141 1083 864 900 1083 862 571 416 284 158 74 90 56 18 84 2 28 136
0 0 0 0 0 0 0 0 1 0 0 0 0 14 0 5 0 0 0 0 1 0 154 120 110 84 113 320 106 303 329 510 414 398 251 268 162 155 382 698 610 1015 1120 1110 1230 1476 1511 1430 1360 2063 1805 1778 1392 1619 1515 1231 1102 1021 967 881 783 626 671 714 1070 1007 882 898 994 1138 837 1056 1068 951 652 296 257 133 63 48 18 84 3 48 114 82
0 0 0 0 0 0 0 0 2 0 0 0 0 2 59 19 1 0 2 8 0 92 134 119 45 66 75 476 175 281 284 300 424 529 772 615 595 278 112 241 802 893 750 1106 1276 1445 1722 1415 1615 2118 1974 1691 1471 1626 1503 1044 1170 1037 1085 977 712 607 925 909 816 906 754 1005 1319 690 845 1174 1106 889 715 276 199 210 81 27 60 45 9 34 84 93
1 26 1 0 0 0 0 0 0 0 2 0 0 0 15 84 30 20 144 16 0 0 202 197 38 59 381 265 389 532 379 254 119 536 544 576 72 58 72 154 251 644 778 1110 1660 2025 2039 1912 1493 1180 1641 1559 1371 1502 1359 1382 1334 1411 1245 968 755 868 1031 1040 899 883 1078 1394 1356 640 1128 1030 1183 875 592 265 140 251 204 82 46 16 10 15 35 1
52 86 0 0 0 0 0 0 0 0 75 61 0 19 35 12 16 1 0 31 52 0 34 146 129 67 49 214 184 277 230 349 632 458 624 476 722 1092 608 680 532 782 784 1365 2006 2139 2097 1945 1530 1726 1827 1463 1438 1412 1340 1492 1606 1486 1132 855 800 791 839 802 848 802 1068 1257 1500 1272 1254 1375 1127 748 508 211 215 92 62 45 6 0 1 28 2 0
138 92 0 0 0 0 0 0 0 0 0 11 8 69 43 6 64 101 91 50 0 0 0 54 43 84 21 61 131 62 412 694 762 806 978 1086 1248 1200 848 651 640 734 1021 1489 1760 1738 1884 1832 1688 1636 1683 1546 1418 1294 1383 1604 1551 1445 1304 965 732 658 625 562 607 780 950 1107 940 1163 1087 1061 1226 709 679 488 268 68 39 13 0 0 0 0 0 0
0 16 11 0 0 0 0 0 0 0 0 0 140 12 7 29 2 21 0 0 20 0 0 20 64 142 65 275 40 72 431 838 836 886 840 947 1097 1284 1029 805 795 1128 1396 1266 1302 1472 1456 1330 1329 1358 1427 1473 1368 1249 1368 1410 1494 1749 1563 1455 1124 934 920 775 642 602 589 622 807 811 850 711 1190 698 883 838 528 343 58 0 0 0 0 0 0 0
16 0 2 0 2 7 0 0 0 0 0 0 0 0 15 76 119 41 0 3 61 98 0 60 127 58 656 416 8 527 815 898 897 843 687 876 911 956 1047 1013 912 1168 1035 827 988 998 1172 1078 1084 1180 1275 1235 1189 1206 1188 1286 1529 1473 1265 1107 903 914 945 1064 1008 779 741 702 939 497 758 748 920 885 1067 968 466 378 52 0 0 0 0 0 0 0
89 3 8 1 0 3 7 0 0 0 6 0 0 0 1 67 44 2 242 37 51 38 54 30 110 344 438 339 508 544 769 1010 929 1045 969 1069 889 857 868 997 973 857 841 820 956 986 877 850 829 964 1041 1100 918 749 1076 1298 1160 1218 1159 1122 914 1395 1260 1040 901 798 642 609 916 705 614 726 572 705 801 774 642 462 58 0 0 0 0 0 0 0
11 127 21 160 13 0 0 0 0 1 5 31 0 0 0 4 22 3 46 0 86 152 144 29 83 402 310 209 422 631 612 978 1026 1041 649 945 816 1064 993 918 868 645 677 699 692 847 969 833 716 850 961 930 823 1020 382 1063 1305 1110 1013 887 1181 1303 1283 1347 1188 1208 1004 880 1078 1057 1047 866 624 607 876 672 796 573 97 0 0 1 0 0 0 0
333 156 138 3 134 51 1 2 0 0 0 1 4 49 1 0 0 3 0 19 60 9 49 4 12 181 228 196 488 479 511 876 1015 712 826 931 872 759 786 904 922 932 783 755 752 754 823 944 916 685 700 743 602 737 772 1009 1191 1034 890 908 1289 1412 1386 1384 1231 1231 1316 1282 1216 1279 1184 919 805 744 842 781 773 705 178 0 10 28 9 61 0 0
109 2 13 2 3 14 0 0 0 0 0 0 0 0 0 6 3 0 0 146 75 26 3 8 0 113 208 90 426 682 535 898 1033 1023 886 881 790 709 794 845 807 749 751 666 671 773 559 783 764 792 810 769 936 1014 949 917 1069 1134 1092 1329 1497 1609 1673 1363 1306 1368 1414 1413 1345 1188 1124 1174 1039 882 960 984 764 1107 573 184 187 40 95 63 64 0
0 0 2 64 21 1 115 7 0 0 0 0 0 0 0 0 9 59 45 85 24 29 38 8 43 455 338 154 291 522 559 761 1071 970 1014 888 828 754 624 700 663 641 494 515 630 473 644 680 644 572 493 692 616 726 695 769 1043 915 924 961 981 1352 1322 1236 1174 1186 1115 1177 1280 1387 1299 1212 1093 1042 987 957 1034 1292 852 375 297 158 1 46 93 166
0 93 0 44 16 9 6 13 2 1 0 0 0 0 0 0 8 22 4 3 5 13 0 55 342 268 141 310 450 580 658 861 938 1128 895 872 747 664 589 570 513 502 581 616 590 543 526 570 458 492 634 506 556 546 623 614 524 786 1020 1245 1193 1118 1253 1146 1159 1090 1071 1136 1267 1221 1065 1142 1181 1093 966 895 778 727 1095 815 276 327 270 113 2 44
39 54 0 0 22 14 1 0 0 0 0 5 1 0 23 0 0 82 156 38 3 1 70 107 129 298 75 339 306 347 569 940 706 793 830 616 494 369 441 360 450 426 372 475 526 532 486 350 461 476 376 279 461 718 689 523 865 858 1044 1143 1201 1200 1216 1262 1295 1243 1255 1251 1288 1148 1168 1062 1132 1021 987 837 841 933 926 1062 725 439 263 266 242 19
14 1 3 5 0 0 0 0 0 0 0 1 15 8 0 5 26 56 5 0 108 0 0 331 516 500 274 360 326 342 510 480 598 653 604 539 426 271 58 57 34 14 246 266 257 345 239 217 205 158 276 267 228 120 334 774 711 745 680 913 923 1098 1163 1109 1193 1133 1289 1242 1302 1410 1250 1240 1366 1224 1176 1241 1082 945 1150 1130 1006 777 407 315 339 274
21 6 20 0 0 0 0 0 0 0 0 5 9 52 174 127 155 80 176 345 254 13 38 360 399 484 276 79 105 355 281 274 325 634 551 484 374 97 92 87 82 33 68 64 117 134 74 61 193 264 193 173 124 139 172 196 228 328 673 782 859 941 1000 975 1032 1119 1154 1096 1230 1369 1365 1542 1574 1336 1240 1248 1098 1236 938 1081 1013 906 682 430 221 420
123 30 20 7 4 0 0 0 0 0 0 0 0 0 31 134 272 380 337 449 502 312 545 709 444 132 52 1 16 38 61 58 106 358 512 476 484 197 151 147 154 74 28 3 3 5 16 13 10 0 6 8 3 6 14 10 49 152 242 339 328 396 585 682 778 716 863 982 1100 1151 1048 1162 1388 1113 1240 1276 1396 810 1115 1065 1195 1060 929 664 413 335
60 23 188 19 1 2 0 0 0 0 0 0 0 0 0 74 49 17 283 460 461 719 568 353 128 19 2 1 3 4 8 20 9 102 160 365 493 375 265 284 257 159 92 40 12 0 1 2 3 4 2 2 3 3 4 0 0 0 0 9 120 377 699 830 774 679 703 776 860 977 1002 1051 1071 1193 1070 1268 1268 925 975 672 964 1040 1122 1073 933 589
263 117 40 7 14 14 0 0 0 0 0 0 0 0 0 6 60 20 2 168 56 139 286 71 5 0 0 1 0 0 0 8 23 189 374 466 414 388 391 340 456 303 155 97 45 18 0 0 0 6 14 0 1 0 0 0 0 0 0 0 0 0 7 179 376 498 653 694 1014 1023 1065 1058 1125 1084 1108 995 1069 960 879 1022 1005 1017 1135 1243 1278 992
79 35 26 14 22 14 16 0 0 0 0 0 0 0 0 0 0 0 0 34 240 349 88 149 126 0 0 1 4 3 3 0 0 1 198 367 393 460 433 308 229 249 233 100 89 68 40 30 20 0 0 0 0 0 0 0 0 0 0 0 0 0 0 0 0 2 38 135 293 436 587 716 1073 1235 1195 1399 1161 980 1192 970 1275 1271 1186 880 1264 1014
148 479 76 140 22 11 20 21 0 12 13 10 181 341 30 13 0 1 2 4 27 27 18 18 6 0 0 2 1 4 3 1 1 0 1 84 334 316 300 389 410 480 405 210 164 109 78 64 53 38 10 2 0 0 0 0 0 0 0 0 0 0 0 0 0 0 0 0 0 0 27 124 320 412 716 1064 1336 1341 1358 1346 1297 1470 1422 1381 911 1032
74 59 24 38 5 12 40 21 25 24 17 0 0 1 24 142 34 37 0 0 0 0 5 0 0 0 0 0 0 0 0 0 0 0 2 53 200 302 310 333 370 412 396 343 223 188 144 115 108 96 68 42 14 0 0 0 0 0 0 0 0 0 0 0 0 0 0 0 0 0 0 0 0 59 144 265 464 816 1130 1337 1440 1468 1385 1308 1333 920
37 36 23 26 54 8 35 38 6 18 4 0 4 0 0 22 106 40 52 7 0 2 0 0 0 0 0 0 0 0 0 0 6 39 72 100 114 212 267 244 139 96 149 161 191 231 199 98 136 124 93 46 39 0 0 0 0 0 0 0 0 0 0 0 0 0 0 0 0 0 0 0 0 0 0 63 281 329 368 586 960 1449 1466 1429 1370 1287
31 86 78 34 41 3 22 32 40 19 34 0 0 0 1 12 18 8 0 4 30 1 0 0 0 0 0 0 0 0 8 35 31 16 10 19 55 75 87 8 54 99 76 122 141 119 82 65 37 0 0 0 0 0 0 0 0 0 0 0 0 0 0 0 0 0 0 0 0 0 0 0 0 0 0 0 0 20 162 327 527 794 1195 1251 1241 1165
1 1 5 0 16 7 36 140 25 0 47 21 0 0 0 0 0 0 0 0 0 4 0 0 0 0 0 0 0 2 12 13 9 4 0 0 1 1 1 2 0 0 3 4 4 9 3 0 0 0 0 0 0 0 0 0 0 0 0 0 0 0 0 0 0 0 0 0 0 0 0 0 0 0 0 0 0 0 7 92 250 400 635 908 1044 1034
2 37 1 3 16 15 15 13 0 24 16 0 2 0 0 0 0 0 2 1 0 0 0 0 0 0 0 0 0 0 0 0 0 0 0 0 0 0 0 0 0 0 0 0 0 0 0 0 0 0 0 2 0 1 0 0 0 0 0 0 0 0 0 0 0 0 0 0 0 0 0 0 0 0 0 0 0 1 25 85 128 156 322 476 487 466
5 36 24 33 33 1 50 80 32 37 1 5 0 0 0 0 0 2 2 0 0 0 2 0 4 6 5 5 0 0 1 0 0 0 0 0 0 0 0 0 0 0 0 0 0 0 0 0 0 0 0 0 1 0 0 0 0 0 1 1 0 0 0 0 0 0 0 0 0 0 0 0 0 0 0 0 0 0 0 7 34 110 354 443 400 335
78 26 2 27 30 8 0 29 1 0 0 0 0 0 0 2 0 4 12 1 0 2 1 1 0 3 2 2 1 0 0 0 0 0 0 0 0 0 0 0 0 0 0 0 0 0 0 0 0 0 0 0 0 0 0 0 0 0 0 0 0 0 0 0 0 0 0 0 0 0 0 0 0 0 0 0 0 0 0 0 2 18 93 314 248 160
0 0 0 0 0 27 8 6 2 26 0 0 0 0 0 0 2 1 0 2 9 8 7 6 7 0 0 1 0 0 0 0 0 0 0 0 0 0 0 0 0 0 0 0 0 0 0 0 0 0 0 0 0 0 0 0 0 0 0 0 0 0 0 0 0 0 0 0 0 0 0 0 0 0 0 0 0 0 0 5 17 32 55 98 245 159
0 0 4 5 6 0 0 0 23 7 0 0 0 0 0 0 0 0 2 0 3 1 0 3 0 4 2 0 0 0 0 0 0 0 0 0 0 0 0 0 0 0 0 0 0 0 0 0 0 0 0 0 0 0 0 0 0 0 0 0 0 0 0 0 0 0 0 0 0 0 0 0 0 0 0 0 0 0 0 2 11 24 45 111 254 241
0 0 0 2 0 0 1 1 1 0 0 0 2 0 0 0 0 1 1 1 6 1 6 2 0 0 0 3 1 2 5 0 0 0 0 0 0 0 0 0 0 0 0 0 0 0 0 0 0 0 0 0 0 0 0 0 0 0 0 0 0 0 0 0 0 0 0 0 0 0 0 0 0 0 0 0 0 0 0 0 0 2 12 75 139 159
0 0 0 1 0 0 6 0 4 2 0 4 2 0 0 1 2 0 0 1 4 1 2 3 5 3 2 3 6 2 0 0 0 0 0 0 0 0 0 0 0 0 0 0 0 0 0 0 0 0 0 0 0 0 0 0 0 0 0 0 0 0 0 0 0 0 0 0 0 0 0 0 0 0 0 0 0 0 0 0 0 0 3 31 90 120
0 0 0 0 0 0 0 1 0 3 3 0 4 0 2 0 5 3 2 2 0 0 1 2 2 1 0 0 0 0 0 0 0 0 0 0 0 0 0 0 0 0 0 0 0 0 0 0 0 0 0 0 0 0 0 0 0 0 0 0 0 0 0 0 0 0 0 0 0 0 0 0 0 0 0 0 0 0 0 0 0 0 0 0 23 78
0 0 0 0 12 1 13 1 0 4 2 0 2 2 4 2 0 0 0 0 0 0 0 0 0 0 0 0 0 0 0 0 0 0 0 0 0 0 0 0 0 0 0 0 0 0 0 0 0 0 0 0 0 0 0 0 0 0 0 0 0 1 0 0 0 0 0 0 0 0 0 0 0 0 0 0 0 0 0 0 0 0 0 0 0 23
3 0 0 0 0 0 9 4 0 1 2 1 4 2 2 3 0 0 0 0 0 0 0 0 0 0 0 0 0 0 0 0 0 0 0 0 0 0 0 0 0 0 0 0 0 0 0 0 0 0 0 0 0 0 0 0 0 0 1 2 2 0 0 2 1 2 0 0 0 0 0 0 0 0 0 0 0 0 0 0 0 0 0 0 0 1
0 0 0 1 1 8 0 0 3 6 0 0 0 0 0 0 3 0 0 0 0 0 0 0 0 0 0 0 0 0 0 0 0 0 0 0 0 0 0 0 0 0 0 0 0 0 0 0 0 0 0 0 0 0 1 2 2 0 2 3 3 3 3 2 1 0 2 4 2 1 0 0 0 0 0 0 0 0 0 0 0 0 0 4 2 5
0 0 1 0 0 3 0 4 3 0 3 0 0 1 3 0 1 0 0 0 0 1 0 0 0 0 0 0 0 0 0 0 0 0 0 0 0 0 0 0 0 0 0 0 0 0 0 0 0 1 1 0 1 1 1 2 2 3 1 2 4 2 2 5 0 2 4 0 2 3 2 4 1 1 0 0 0 0 0 0 0 0 0 7 91 0
0 1 0 0 0 0 0 4 1 0 0 2 0 7 8 6 4 2 4 5 1 4 3 1 2 2 0 0 0 0 0 0 0 0 0 0 0 0 0 0 0 0 0 0 0 0 0 1 2 2 0 1 1 4 3 3 4 4 4 3 3 2 1 0 0 0 3 0 0 1 0 2 0 4 1 0 0 0 1 1 0 0 0 0 0 0
Wind_Speed
nan nan nan nan nan nan nan nan nan nan nan nan nan nan nan nan nan nan nan nan nan nan nan nan nan nan nan nan nan nan nan nan nan nan nan 17 19 21 21 25 26 24 25 24 21 19 18 17 17 16 19 18 20 24 26 22 25 26 26 25 24 20 20 23 23 12 5 12 15 16 17 19 18 20 19 18 19 19 20 19 20 21 20 19 17 15
nan nan nan nan nan nan nan nan nan nan nan nan nan nan nan nan nan nan nan nan nan nan nan nan nan nan nan nan nan nan nan nan nan nan 16 18 22 22 23 27 28 28 28 26 23 20 19 18 18 17 18 21 23 26 21 22 24 26 28 26 25 21 23 26 25 11 11 14 16 17 18 21 21 21 20 21 21 21 21 20 20 20 20 20 17 16
nan nan nan nan nan nan nan nan nan nan nan nan nan nan nan nan nan nan nan nan nan nan nan nan nan nan nan nan nan nan nan nan nan nan 19 17 23 25 27 27 31 29 29 26 24 22 20 20 20 18 19 24 26 22 19 18 23 26 27 24 24 24 24 26 26 13 12 15 19 19 21 21 22 22 23 24 24 23 23 22 21 20 20 20 20 18
nan nan nan nan nan nan nan nan nan nan nan nan nan nan nan nan nan nan nan nan nan nan nan nan nan nan nan nan nan nan 26 21 nan nan 20 19 22 26 28 29 30 29 29 27 26 22 20 20 21 20 21 26 28 22 19 21 23 26 25 24 24 25 26 27 23 13 15 19 20 24 23 24 23 24 25 26 25 25 24 22 21 21 20 19 19 18
nan nan nan nan nan nan nan nan nan nan nan nan nan nan nan nan nan nan nan nan nan nan nan nan nan nan nan nan nan nan nan nan nan 21 21 21 21 28 30 32 28 27 27 25 24 22 19 20 21 21 23 27 27 25 21 20 23 24 24 24 25 25 27 25 20 9 18 21 23 24 25 26 26 23 23 24 24 24 nan nan 21 21 19 20 20 19
nan nan nan nan nan nan nan nan nan nan nan nan nan nan nan nan nan nan nan nan nan nan nan nan nan nan nan nan nan nan nan 23 24 21 20 21 21 28 29 29 26 24 23 22 20 18 18 19 21 22 21 24 26 25 21 17 23 25 26 27 25 24 27 24 19 11 19 20 24 24 24 23 21 22 21 22 nan nan 19 nan nan 21 19 19 18 18
nan nan nan nan nan nan nan nan nan nan nan nan nan nan nan nan nan nan nan nan nan nan nan nan nan nan nan nan nan nan nan nan 24 20 20 21 21 24 26 26 23 21 19 17 16 15 17 17 19 21 19 20 25 26 21 19 21 25 28 29 26 26 27 27 19 18 20 23 23 23 23 22 21 20 20 21 19 19 nan nan nan 20 17 17 17 16
nan nan nan nan nan nan nan nan nan nan nan nan nan nan nan nan nan nan nan nan nan nan nan nan nan nan nan nan 19 nan 20 19 21 20 18 20 18 19 23 19 18 17 16 15 15 10 14 15 16 19 19 18 21 25 24 24 22 25 29 30 27 28 29 27 17 22 20 22 23 23 23 21 20 20 20 19 18 18 nan nan nan nan 17 16 16 14
nan nan nan nan nan nan nan nan nan nan nan nan nan nan nan nan nan nan nan nan nan nan nan nan nan nan nan nan 18 nan 14 14 16 18 16 15 17 16 18 17 16 14 14 17 14 10 11 14 15 17 18 19 21 24 26 28 25 27 32 31 27 28 28 23 18 24 19 20 21 22 21 19 20 20 19 19 nan nan nan 16 15 17 18 17 16 15
nan nan nan nan nan nan nan nan nan nan nan nan nan nan nan nan nan nan nan nan nan nan nan 8 nan nan nan 18 24 19 9 nan nan 17 16 17 16 19 22 18 16 15 19 24 14 7 9 16 16 17 20 24 31 34 37 35 34 30 34 29 26 26 20 21 15 23 18 22 19 20 20 20 20 20 19 19 19 17 15 17 17 18 18 nan nan 18
nan nan nan nan nan nan nan nan nan nan nan nan nan nan nan nan nan nan nan nan nan nan nan nan nan nan nan 21 nan 19 nan nan 16 25 22 20 21 25 19 15 17 16 15 16 11 13 11 19 20 22 28 33 29 24 26 29 28 22 27 27 24 21 19 16 21 20 22 19 17 21 19 20 21 21 20 20 19 18 18 20 20 19 21 21 22 22
nan nan nan nan nan nan nan nan nan nan nan nan nan nan nan nan nan nan nan nan nan nan nan nan 10 nan nan 17 nan nan nan nan 20 18 16 18 23 23 16 10 11 14 13 13 14 15 14 26 24 28 26 25 26 28 30 28 30 29 32 33 29 26 27 30 29 22 18 18 17 19 18 20 20 20 20 20 20 21 22 22 22 23 nan 23 nan 24
nan nan nan nan nan nan nan nan nan nan nan nan nan nan nan nan nan nan nan nan nan nan nan nan 11 12 nan 26 22 nan 32 30 nan 16 17 14 16 14 12 7 10 13 16 15 16 15 23 26 25 20 23 28 29 31 32 29 30 30 32 34 32 31 31 34 34 29 20 16 17 19 19 21 19 20 22 22 22 23 nan nan nan nan nan nan nan 26
nan nan nan nan nan nan nan nan nan nan nan nan nan nan nan nan nan nan nan nan nan nan 18 10 16 nan 15 26 29 35 28 20 21 23 20 16 16 13 15 11 10 15 17 18 15 17 28 27 22 18 23 30 29 32 32 30 28 27 30 33 36 36 36 37 34 32 30 15 13 21 21 19 19 22 22 22 24 23 nan nan nan nan nan nan 26 nan
nan nan nan nan nan nan nan nan nan nan nan nan nan nan nan nan nan nan nan nan nan nan 14 13 nan nan nan 28 28 28 26 26 23 20 20 18 19 16 11 14 17 20 19 16 13 21 28 24 23 19 23 26 28 31 30 29 27 29 30 30 34 36 37 38 35 31 29 23 16 20 19 20 20 22 22 23 24 23 nan nan nan nan nan nan nan nan
nan nan nan nan nan nan nan nan nan nan nan nan nan nan nan nan nan nan 18 nan nan nan 15 16 nan nan 22 28 30 28 31 30 25 22 21 24 nan nan nan 28 24 19 15 18 21 24 25 27 31 21 20 27 30 31 30 31 30 31 33 32 30 32 35 40 40 34 29 26 23 18 18 20 22 22 23 25 24 23 22 nan nan nan nan nan nan nan
nan nan nan nan nan nan nan nan nan nan nan nan nan nan nan nan nan nan nan nan nan nan nan 18 12 nan nan 26 29 28 28 24 28 25 21 22 22 26 31 32 31 27 27 26 26 27 31 32 27 24 27 31 32 32 31 31 31 34 36 36 32 28 32 40 41 37 30 28 26 21 20 22 22 23 25 25 25 nan nan nan nan nan nan nan nan nan
18 nan nan nan nan nan nan nan nan nan nan nan nan nan nan nan nan 17 nan nan nan nan nan nan nan nan nan nan 23 nan 20 25 28 28 28 29 30 33 35 35 36 36 32 31 30 28 29 30 30 29 31 31 35 35 34 33 31 31 36 37 34 29 33 38 40 38 33 29 29 24 21 20 22 22 25 27 26 nan nan nan nan nan nan nan nan nan
nan nan nan nan nan nan nan nan nan nan nan nan 17 nan nan nan nan nan nan nan nan nan nan nan nan 11 nan 22 nan nan 26 27 29 29 32 33 36 39 39 40 40 42 41 39 38 37 35 35 35 35 36 38 39 39 38 36 32 33 37 37 30 27 32 37 37 37 34 33 32 31 24 18 22 21 23 25 23 22 nan nan nan nan nan nan nan nan
nan nan nan nan nan nan nan nan nan nan nan nan nan nan nan nan 18 nan nan nan nan nan nan nan 11 nan 27 26 nan 30 28 27 30 30 33 34 35 36 37 38 39 38 38 39 37 37 37 37 36 37 40 41 41 42 43 39 37 38 38 37 33 31 33 37 38 36 36 34 37 33 27 15 15 20 21 23 22 21 nan nan nan nan nan nan nan nan
nan nan nan nan nan nan nan nan nan nan nan nan nan nan nan nan nan nan 23 nan nan nan nan nan 12 26 29 34 37 33 26 27 30 33 35 36 36 36 37 38 39 39 40 41 40 39 39 40 40 41 42 44 46 47 46 45 44 40 36 33 31 32 36 38 36 36 34 29 29 32 26 15 9 17 19 21 21 20 nan nan nan nan nan nan nan nan
nan 21 nan 20 nan nan nan nan nan nan nan nan nan nan nan nan nan nan nan nan nan 14 13 nan nan 29 28 26 32 30 29 30 31 35 36 37 38 40 40 41 41 40 42 41 41 40 41 43 44 46 45 42 46 48 46 45 47 45 40 38 35 38 39 39 38 37 38 34 32 31 25 18 19 19 19 20 20 20 nan nan nan nan nan nan nan nan
26 23 20 nan 19 nan nan nan nan nan nan nan nan nan nan nan nan nan nan nan nan nan nan nan nan 22 26 24 28 28 28 31 32 34 33 35 38 39 42 44 45 45 45 44 44 42 41 40 41 43 44 43 46 48 44 39 40 42 43 44 43 44 41 38 38 38 40 43 40 32 27 24 22 20 20 21 20 21 24 nan nan nan nan nan nan nan
25 nan nan nan nan nan nan nan nan nan nan nan nan nan nan nan nan nan nan 21 nan nan nan nan nan 28 26 nan 24 24 29 29 33 33 34 37 37 38 40 41 42 43 43 42 42 42 41 41 41 42 42 43 46 46 44 40 39 40 40 41 39 41 37 37 37 36 39 42 39 33 28 23 20 18 20 20 20 22 22 22 21 nan nan nan nan nan
nan nan nan nan nan nan 18 nan nan nan nan nan nan nan nan nan nan nan nan nan nan nan nan nan nan 28 31 26 25 23 28 31 32 34 34 35 35 35 36 36 36 38 39 40 40 38 38 38 38 37 40 40 43 45 44 41 39 39 37 38 36 35 36 38 37 36 36 36 35 31 25 20 18 18 18 19 21 22 21 20 20 19 nan nan nan 16
nan nan nan nan nan nan nan nan nan nan nan nan nan nan nan nan nan nan nan nan nan nan nan nan 27 30 31 29 30 31 32 30 31 33 32 30 31 32 33 34 37 38 39 39 37 36 35 36 35 34 37 37 39 40 39 37 37 35 37 37 34 35 36 37 35 35 35 33 31 27 22 20 19 18 18 19 20 22 20 19 18 19 18 19 nan nan
nan nan nan nan nan nan nan nan nan nan nan nan nan nan nan nan nan nan 25 nan nan nan nan 16 27 32 nan 29 28 32 31 33 33 31 29 28 30 31 31 33 34 36 36 35 34 34 35 35 35 36 36 35 37 34 34 33 33 33 33 33 32 32 33 33 32 32 32 29 25 23 19 19 19 19 19 19 19 20 21 20 18 18 18 20 19 nan
nan nan nan nan nan nan nan nan nan nan nan nan nan nan nan nan nan nan nan nan 26 nan nan 38 40 37 35 33 31 32 34 35 33 31 30 28 27 28 nan nan nan nan 34 33 34 34 35 37 37 37 37 38 38 39 35 36 34 33 33 32 30 30 29 29 30 30 30 28 25 23 21 20 20 19 18 18 18 18 20 20 19 18 19 20 21 21
nan nan nan nan nan nan nan nan nan nan nan nan nan nan 34 30 26 nan 29 30 29 nan nan 35 37 40 36 nan 34 31 28 28 29 29 28 28 28 nan nan nan nan nan nan nan 35 36 nan nan 36 36 38 38 39 39 38 36 34 32 32 31 30 29 29 29 29 29 28 28 27 27 25 24 22 21 19 18 19 18 19 17 18 18 18 20 21 24
22 nan nan nan nan nan nan nan nan nan nan nan nan nan nan 35 35 35 36 37 34 39 42 41 45 43 nan nan nan nan nan nan 29 29 29 29 31 30 30 32 34 nan nan nan nan nan nan nan nan nan nan nan nan nan nan nan nan 33 32 32 31 31 32 31 30 30 29 29 29 28 28 27 25 23 23 22 23 21 18 18 19 19 19 20 20 24
nan nan 27 nan nan nan nan nan nan nan nan nan nan nan nan nan nan nan 39 41 44 43 46 48 48 nan nan nan nan nan nan nan nan 32 32 33 34 36 34 34 35 36 nan nan nan nan nan nan nan nan nan nan nan nan nan nan nan nan nan nan 34 34 33 32 32 32 31 31 30 30 29 30 29 28 27 28 25 25 25 23 21 22 22 22 23 25
19 25 nan nan nan nan nan nan nan nan nan nan nan nan nan nan nan nan nan 38 nan 39 41 nan nan nan nan nan nan nan nan nan nan 35 33 33 35 37 37 37 39 39 40 nan nan nan nan nan nan nan nan nan nan nan nan nan nan nan nan nan nan nan nan 35 35 35 34 33 32 32 31 32 31 30 31 30 30 29 29 30 29 28 27 27 29 32
nan nan nan nan nan nan nan nan nan nan nan nan nan nan nan nan nan nan nan nan 43 39 nan 37 41 nan nan nan nan nan nan nan nan nan 37 38 39 40 41 41 42 43 43 nan nan nan nan nan nan nan nan nan nan nan nan nan nan nan nan nan nan nan nan nan nan nan nan 37 36 36 35 34 34 34 33 33 32 33 31 31 32 31 32 29 30 34
24 23 nan 18 nan nan nan nan nan nan nan nan 29 25 nan nan nan nan nan nan nan nan nan nan nan nan nan nan nan nan nan nan nan nan nan nan 41 43 44 45 45 46 46 47 47 48 nan nan nan nan nan nan nan nan nan nan nan nan nan nan nan nan nan nan nan nan nan nan nan nan nan 39 39 37 37 36 35 35 35 34 34 34 34 34 33 33
nan nan nan nan nan nan nan nan nan nan nan nan nan nan nan 25 nan nan nan nan nan nan nan nan nan nan nan nan nan nan nan nan nan nan nan nan 46 46 47 48 49 49 50 50 51 51 51 50 50 nan nan nan nan nan nan nan nan nan nan nan nan nan nan nan nan nan nan nan nan nan nan nan nan nan 42 40 39 39 38 37 37 37 37 36 36 35
nan nan nan nan nan nan nan nan nan nan nan nan nan nan nan nan 30 nan nan nan nan nan nan nan nan nan nan nan nan nan nan nan nan nan nan nan 52 51 51 51 50 nan 51 50 51 51 50 nan 49 49 nan nan nan nan nan nan nan nan nan nan nan nan nan nan nan nan nan nan nan nan nan nan nan nan nan nan 41 40 39 40 39 38 39 38 37 38
nan nan nan nan nan nan nan nan nan nan nan nan nan nan nan nan nan nan nan nan nan nan nan nan nan nan nan nan nan nan nan nan nan nan nan nan nan nan nan nan nan nan nan 50 50 51 nan nan nan nan nan nan nan nan nan nan nan nan nan nan nan nan nan nan nan nan nan nan nan nan nan nan nan nan nan nan nan nan 42 43 44 44 43 41 40 38
nan nan nan nan nan nan nan 24 nan nan nan nan nan nan nan nan nan nan nan nan nan nan nan nan nan nan nan nan nan nan nan nan nan nan nan nan nan nan nan nan nan nan nan nan nan nan nan nan nan nan nan nan nan nan nan nan nan nan nan nan nan nan nan nan nan nan nan nan nan nan nan nan nan nan nan nan nan nan nan nan 46 45 46 44 43 42
nan nan nan nan nan nan nan nan nan nan nan nan nan nan nan nan nan nan nan nan nan nan nan nan nan nan nan nan nan nan nan nan nan nan nan nan nan nan nan nan nan nan nan nan nan nan nan nan nan nan nan nan nan nan nan nan nan nan nan nan nan nan nan nan nan nan nan nan nan nan nan nan nan nan nan nan nan nan nan nan 47 46 46 45 46 45
nan nan nan nan nan nan nan nan nan nan nan nan nan nan nan nan nan nan nan nan nan nan nan nan nan nan nan nan nan nan nan nan nan nan nan nan nan nan nan nan nan nan nan nan nan nan nan nan nan nan nan nan nan nan nan nan nan nan nan nan nan nan nan nan nan nan nan nan nan nan nan nan nan nan nan nan nan nan nan nan nan 48 47 47 46 46
nan nan nan nan nan nan nan nan nan nan nan nan nan nan nan nan nan nan nan nan nan nan nan nan nan nan nan nan nan nan nan nan nan nan nan nan nan nan nan nan nan nan nan nan nan nan nan nan nan nan nan nan nan nan nan nan nan nan nan nan nan nan nan nan nan nan nan nan nan nan nan nan nan nan nan nan nan nan nan nan nan nan nan 49 48 47
nan nan nan nan nan nan nan nan nan nan nan nan nan nan nan nan nan nan nan nan nan nan nan nan nan nan nan nan nan nan nan nan nan nan nan nan nan nan nan nan nan nan nan nan nan nan nan nan nan nan nan nan nan nan nan nan nan nan nan nan nan nan nan nan nan nan nan nan nan nan nan nan nan nan nan nan nan nan nan nan nan nan nan nan 51 49
nan nan nan nan nan nan nan nan nan nan nan nan nan nan nan nan nan nan nan nan nan nan nan nan nan nan nan nan nan nan nan nan nan nan nan nan nan nan nan nan nan nan nan nan nan nan nan nan nan nan nan nan nan nan nan nan nan nan nan nan nan nan nan nan nan nan nan nan nan nan nan nan nan nan nan nan nan nan nan nan nan nan nan 56 54 53
nan nan nan nan nan nan nan nan nan nan nan nan nan nan nan nan nan nan nan nan nan nan nan nan nan nan nan nan nan nan nan nan nan nan nan nan nan nan nan nan nan nan nan nan nan nan nan nan nan nan nan nan nan nan nan nan nan nan nan nan nan nan nan nan nan nan nan nan nan nan nan nan nan nan nan nan nan nan nan nan nan nan nan nan 57 56
nan nan nan nan nan nan nan nan nan nan nan nan nan nan nan nan nan nan nan nan nan nan nan nan nan nan nan nan nan nan nan nan nan nan nan nan nan nan nan nan nan nan nan nan nan nan nan nan nan nan nan nan nan nan nan nan nan nan nan nan nan nan nan nan nan nan nan nan nan nan nan nan nan nan nan nan nan nan nan nan nan nan nan nan nan 56
nan nan nan nan nan nan nan nan nan nan nan nan nan nan nan nan nan nan nan nan nan nan nan nan nan nan nan nan nan nan nan nan nan nan nan nan nan nan nan nan nan nan nan nan nan nan nan nan nan nan nan nan nan nan nan nan nan nan nan nan nan nan nan nan nan nan nan nan nan nan nan nan nan nan nan nan nan nan nan nan nan nan nan nan nan nan
nan nan nan nan nan nan nan nan nan nan nan nan nan nan nan nan nan nan nan nan nan nan nan nan nan nan nan nan nan nan nan nan nan nan nan nan nan nan nan nan nan nan nan nan nan nan nan nan nan nan nan nan nan nan nan nan nan nan nan nan nan nan nan nan nan nan nan nan nan nan nan nan nan nan nan nan nan nan nan nan nan nan nan nan nan nan
nan nan nan nan nan nan nan nan nan nan nan nan nan nan nan nan nan nan nan nan nan nan nan nan nan nan nan nan nan nan nan nan nan nan nan nan nan nan nan nan nan nan nan nan nan nan nan nan nan nan nan nan nan nan nan nan nan nan nan nan nan nan nan nan nan nan nan nan nan nan nan nan nan nan nan nan nan nan nan nan nan nan nan nan nan nan
nan nan nan nan nan nan nan nan nan nan nan nan nan nan nan nan nan nan nan nan nan nan nan nan nan nan nan nan nan nan nan nan nan nan nan nan nan nan nan nan nan nan nan nan nan nan nan nan nan nan nan nan nan nan nan nan nan nan nan nan nan nan nan nan nan nan nan nan nan nan nan nan nan nan nan nan nan nan nan nan nan nan nan nan nan nan
nan nan nan nan nan nan nan nan nan nan nan nan nan nan nan nan nan nan nan nan nan nan nan nan nan nan nan nan nan nan nan nan nan nan nan nan nan nan nan nan nan nan nan nan nan nan nan nan nan nan nan nan nan nan nan nan nan nan nan nan nan nan nan nan nan nan nan nan nan nan nan nan nan nan nan nan nan nan nan nan nan nan nan nan nan nan
nan nan nan nan nan nan nan nan nan nan nan nan nan nan nan nan nan nan nan nan nan nan nan nan nan nan nan nan nan nan nan nan nan nan nan nan nan nan nan nan nan nan nan nan nan nan nan nan nan nan nan nan nan nan nan nan nan nan nan nan nan nan nan nan nan nan nan nan nan nan nan nan nan nan nan nan nan nan nan nan nan nan nan nan nan nan
Wind_Direction
nan nan nan nan nan nan nan nan nan nan nan nan nan nan nan nan nan nan nan nan nan nan nan nan nan nan nan nan nan nan nan nan nan nan nan 270 269 271 272 272 275 277 271 275 285 294 295 294 289 284 283 287 282 276 274 286 288 285 284 285 285 275 274 269 259 252 301 281 267 262 268 267 271 270 274 277 278 278 276 277 281 281 281 283 283 285
nan nan nan nan nan nan nan nan nan nan nan nan nan nan nan nan nan nan nan nan nan nan nan nan nan nan nan nan nan nan nan nan nan nan 269 270 273 270 273 273 270 268 268 278 281 288 292 293 292 288 285 287 285 281 288 290 285 280 280 282 285 280 274 273 267 260 279 278 267 271 270 270 272 277 279 278 275 272 276 278 277 276 277 277 279 282
nan nan nan nan nan nan nan nan nan nan nan nan nan nan nan nan nan nan nan nan nan nan nan nan nan nan nan nan nan nan nan nan nan nan 267 267 272 271 270 273 271 271 272 277 280 283 291 296 298 293 285 278 277 281 285 289 288 284 282 282 280 271 271 267 260 243 268 267 265 269 267 270 271 267 271 274 275 277 276 275 275 275 277 280 283 282
nan nan nan nan nan nan nan nan nan nan nan nan nan nan nan nan nan nan nan nan nan nan nan nan nan nan nan nan nan nan 268 261 nan nan 267 263 267 270 273 272 272 274 275 279 281 284 290 295 294 292 288 285 291 298 296 295 291 283 282 279 276 270 268 260 238 218 265 263 259 263 267 265 264 268 269 272 273 274 278 278 278 277 275 274 279 279
nan nan nan nan nan nan nan nan nan nan nan nan nan nan nan nan nan nan nan nan nan nan nan nan nan nan nan nan nan nan nan nan nan 267 265 265 262 266 269 271 273 275 277 278 280 287 292 297 295 294 292 287 292 297 300 295 292 282 283 280 276 271 269 259 241 222 266 266 266 267 264 264 267 271 274 275 276 276 nan nan 285 282 279 282 280 278
nan nan nan nan nan nan nan nan nan nan nan nan nan nan nan nan nan nan nan nan nan nan nan nan nan nan nan nan nan nan nan 268 268 269 272 269 266 270 273 274 273 270 269 273 281 291 295 294 294 293 296 298 297 295 297 293 288 287 282 278 272 258 257 256 242 239 277 274 273 275 273 277 276 274 275 273 nan nan 287 nan nan 286 285 280 278 275
nan nan nan nan nan nan nan nan nan nan nan nan nan nan nan nan nan nan nan nan nan nan nan nan nan nan nan nan nan nan nan nan 270 269 269 266 264 267 268 270 269 264 261 264 273 287 287 291 295 294 299 302 301 299 297 289 282 282 277 272 266 255 253 247 234 274 279 274 275 277 277 278 275 274 268 267 271 273 nan nan nan 281 283 287 284 276
nan nan nan nan nan nan nan nan nan nan nan nan nan nan nan nan nan nan nan nan nan nan nan nan nan nan nan nan 270 nan 265 269 275 268 257 260 262 259 259 265 262 257 259 248 257 273 283 289 294 299 301 300 298 293 290 276 275 274 269 262 255 251 253 241 248 273 274 270 271 273 275 274 273 270 269 272 267 267 nan nan nan nan 283 288 285 285
nan nan nan nan nan nan nan nan nan nan nan nan nan nan nan nan nan nan nan nan nan nan nan nan nan nan nan nan 270 nan 269 274 283 270 251 244 255 250 260 260 253 251 244 229 231 261 281 289 292 291 294 285 278 273 268 271 262 247 249 248 244 240 231 220 237 267 266 264 268 269 271 271 266 272 270 267 nan nan nan 271 274 274 275 275 273 273
nan nan nan nan nan nan nan nan nan nan nan nan nan nan nan nan nan nan nan nan nan nan nan 242 nan nan nan 261 269 278 276 nan nan 271 266 247 239 246 240 238 240 229 226 230 210 251 272 272 278 274 272 265 244 239 238 233 239 239 247 249 236 244 225 203 228 258 255 260 266 266 268 268 268 268 265 264 266 269 274 272 272 274 278 nan nan 283
nan nan nan nan nan nan nan nan nan nan nan nan nan nan nan nan nan nan nan nan nan nan nan nan nan nan nan 270 nan 278 nan nan 241 254 242 252 250 245 221 230 225 230 238 254 253 242 251 270 269 265 255 252 260 269 263 258 264 270 272 278 273 269 244 213 228 240 257 263 265 263 269 270 270 267 265 270 277 282 287 287 289 289 289 291 289 291
nan nan nan nan nan nan nan nan nan nan nan nan nan nan nan nan nan nan nan nan nan nan nan nan 236 nan nan 259 nan nan nan nan 266 265 261 258 255 239 233 220 228 233 249 250 252 254 256 251 257 251 261 268 270 271 266 265 267 276 281 285 285 280 265 250 244 232 218 252 258 269 270 266 267 269 270 277 284 291 294 295 296 293 nan 297 nan 300
nan nan nan nan nan nan nan nan nan nan nan nan nan nan nan nan nan nan nan nan nan nan nan nan 248 221 nan 223 205 nan 247 234 nan 277 273 267 266 270 263 216 209 241 253 246 240 247 257 256 244 264 263 266 273 272 275 275 281 289 293 295 292 283 270 263 265 268 243 205 255 261 266 265 266 271 275 280 287 293 nan nan nan nan nan nan nan 303
nan nan nan nan nan nan nan nan nan nan nan nan nan nan nan nan nan nan nan nan nan nan 230 214 237 nan 211 241 234 223 242 256 239 245 253 236 246 246 265 246 226 247 244 239 250 257 258 263 256 263 270 268 272 277 280 283 286 291 295 296 292 285 270 260 262 266 267 256 242 259 261 265 269 273 278 283 291 295 nan nan nan nan nan nan 305 nan
nan nan nan nan nan nan nan nan nan nan nan nan nan nan nan nan nan nan nan nan nan nan 269 249 nan nan nan 234 237 249 259 257 245 241 248 257 258 253 247 265 251 236 232 236 250 253 262 276 281 270 281 275 275 282 284 289 289 288 289 290 290 288 281 274 274 270 267 272 262 266 268 270 272 277 281 287 290 294 nan nan nan nan nan nan nan nan
nan nan nan nan nan nan nan nan nan nan nan nan nan nan nan nan nan nan 217 nan nan nan 238 250 nan nan 217 246 240 240 249 256 253 240 241 250 nan nan nan 266 269 260 256 255 252 251 266 273 270 281 284 278 277 284 291 294 293 289 285 284 289 292 286 279 275 266 255 254 261 261 269 274 275 277 283 286 289 289 290 nan nan nan nan nan nan nan
nan nan nan nan nan nan nan nan nan nan nan nan nan nan nan nan nan nan nan nan nan nan nan 237 244 nan nan 252 254 243 245 244 254 256 252 252 255 256 262 268 272 271 258 254 255 256 265 274 285 289 291 280 280 284 287 290 290 290 288 288 289 290 287 281 273 265 258 256 258 273 275 273 274 279 282 285 286 nan nan nan nan nan nan nan nan nan
207 nan nan nan nan nan nan nan nan nan nan nan nan nan nan nan nan 208 nan nan nan nan nan nan nan nan nan nan 266 nan 251 254 250 249 242 240 242 244 249 256 264 267 270 265 264 268 269 272 277 279 278 282 284 285 284 282 282 283 283 286 290 292 289 283 277 266 258 256 262 262 268 262 268 274 276 281 286 nan nan nan nan nan nan nan nan nan
nan nan nan nan nan nan nan nan nan nan nan nan 194 nan nan nan nan nan nan nan nan nan nan nan nan 232 nan 263 nan nan 263 255 255 250 244 239 238 240 244 253 259 263 266 268 269 268 267 262 260 266 274 278 282 284 279 277 276 272 272 272 275 283 288 290 280 269 264 264 258 260 250 248 263 266 271 275 279 282 nan nan nan nan nan nan nan nan
nan nan nan nan nan nan nan nan nan nan nan nan nan nan nan nan 213 nan nan nan nan nan nan nan 268 nan 216 242 nan 264 256 258 254 249 249 247 244 243 244 247 252 257 261 265 267 267 268 271 274 274 273 275 279 279 277 272 267 264 264 264 265 269 273 280 277 267 265 263 257 255 262 238 249 269 274 276 279 283 nan nan nan nan nan nan nan nan
nan nan nan nan nan nan nan nan nan nan nan nan nan nan nan nan nan nan 221 nan nan nan nan nan 239 248 234 224 243 256 260 259 255 250 247 245 244 244 245 247 250 254 257 261 263 265 267 270 273 273 272 269 267 269 269 272 271 270 270 267 268 273 276 276 274 268 264 264 260 261 260 268 278 285 281 282 283 284 nan nan nan nan nan nan nan nan
nan 229 nan 222 nan nan nan nan nan nan nan nan nan nan nan nan nan nan nan nan nan 203 226 nan nan 248 236 224 239 251 253 257 255 254 251 247 246 244 244 247 248 251 254 256 259 263 263 263 264 266 265 266 264 260 258 263 269 272 269 269 270 270 268 269 269 264 258 252 258 270 273 282 290 286 277 277 279 280 nan nan nan nan nan nan nan nan
218 217 216 nan 227 nan nan nan nan nan nan nan nan nan nan nan nan nan nan nan nan nan nan nan nan 245 233 224 233 240 245 248 252 253 251 247 246 247 246 246 247 250 252 255 258 260 262 264 265 265 267 271 271 272 273 271 272 271 270 268 268 269 266 266 268 266 260 257 261 270 273 272 274 273 272 274 273 275 276 nan nan nan nan nan nan nan
224 nan nan nan nan nan nan nan nan nan nan nan nan nan nan nan nan nan nan 221 nan nan nan nan nan 246 243 nan 235 233 244 246 245 249 249 246 245 246 248 249 250 251 252 254 256 257 258 261 260 260 262 263 268 274 275 272 269 271 272 271 265 260 266 271 271 273 270 264 266 268 266 265 263 263 266 267 265 270 273 275 278 nan nan nan nan nan
nan nan nan nan nan nan 224 nan nan nan nan nan nan nan nan nan nan nan nan nan nan nan nan nan nan 245 245 242 241 245 246 242 246 246 248 251 249 249 251 252 253 253 252 251 249 251 258 259 257 258 258 259 262 265 267 269 270 270 272 275 274 271 272 273 274 277 279 276 272 269 266 262 258 259 264 264 263 268 271 273 274 274 nan nan nan 279
nan nan nan nan nan nan nan nan nan nan nan nan nan nan nan nan nan nan nan nan nan nan nan nan 239 244 251 248 249 249 246 245 244 248 248 251 253 252 251 249 247 246 246 248 252 252 249 250 254 253 254 256 259 261 266 270 273 273 273 272 273 273 273 274 274 278 278 275 273 269 264 259 258 261 265 267 271 275 271 271 274 274 273 275 nan nan
nan nan nan nan nan nan nan nan nan nan nan nan nan nan nan nan nan nan 224 nan nan nan nan 253 266 263 nan 258 256 255 251 243 241 245 249 251 252 250 250 248 248 247 247 247 247 248 249 246 246 247 252 255 259 262 264 267 267 270 273 275 276 275 273 273 274 274 274 273 274 271 264 262 262 265 268 270 268 267 273 274 273 273 275 277 281 nan
nan nan nan nan nan nan nan nan nan nan nan nan nan nan nan nan nan nan nan nan 227 nan nan 237 264 264 264 262 259 254 246 239 238 239 244 246 249 250 nan nan nan nan 251 249 247 248 249 247 245 246 249 254 256 258 260 259 260 264 267 269 271 272 276 278 280 278 273 271 267 264 264 264 265 265 265 267 269 270 272 274 275 276 274 277 282 282
nan nan nan nan nan nan nan nan nan nan nan nan nan nan 229 230 236 nan 234 231 229 nan nan 256 254 258 259 nan 254 250 249 244 241 241 243 246 248 nan nan nan nan nan nan nan 252 251 nan nan 250 254 255 254 255 257 260 263 264 264 266 268 268 269 271 274 278 276 272 269 263 259 259 261 261 260 261 265 269 270 277 274 277 279 277 278 279 279
250 nan nan nan nan nan nan nan nan nan nan nan nan nan nan 229 234 237 239 237 238 243 251 256 259 258 nan nan nan nan nan nan 244 241 241 245 247 249 255 256 255 nan nan nan nan nan nan nan nan nan nan nan nan nan nan nan nan 265 265 264 263 265 266 267 267 267 268 266 263 261 260 260 260 260 260 260 266 273 275 279 281 280 280 280 279 278
nan nan 264 nan nan nan nan nan nan nan nan nan nan nan nan nan nan nan 240 242 246 246 252 255 258 nan nan nan nan nan nan nan nan 248 246 244 247 248 250 259 259 257 nan nan nan nan nan nan nan nan nan nan nan nan nan nan nan nan nan nan 260 260 261 261 261 261 262 263 260 260 260 260 261 263 265 266 263 267 278 282 278 278 277 276 277 272
255 255 nan nan nan nan nan nan nan nan nan nan nan nan nan nan nan nan nan 230 nan 252 255 nan nan nan nan nan nan nan nan nan nan 257 254 252 253 255 255 256 258 257 257 nan nan nan nan nan nan nan nan nan nan nan nan nan nan nan nan nan nan nan nan 259 259 258 257 258 260 259 260 260 260 262 264 267 270 272 270 269 271 272 273 273 274 275
nan nan nan nan nan nan nan nan nan nan nan nan nan nan nan nan nan nan nan nan 233 235 nan 247 247 nan nan nan nan nan nan nan nan nan 259 256 252 252 252 253 253 254 254 nan nan nan nan nan nan nan nan nan nan nan nan nan nan nan nan nan nan nan nan nan nan nan nan 255 255 256 256 259 261 261 262 261 265 266 267 269 271 271 272 275 274 276
256 250 nan 271 nan nan nan nan nan nan nan nan 240 230 nan nan nan nan nan nan nan nan nan nan nan nan nan nan nan nan nan nan nan nan nan nan 249 247 248 249 250 252 251 249 247 246 nan nan nan nan nan nan nan nan nan nan nan nan nan nan nan nan nan nan nan nan nan nan nan nan nan 256 257 256 260 263 263 262 264 265 265 266 267 268 270 273
nan nan nan nan nan nan nan nan nan nan nan nan nan nan nan 242 nan nan nan nan nan nan nan nan nan nan nan nan nan nan nan nan nan nan nan nan 250 249 249 249 249 249 249 248 247 246 244 244 243 nan nan nan nan nan nan nan nan nan nan nan nan nan nan nan nan nan nan nan nan nan nan nan nan nan 259 258 260 262 262 262 263 266 267 268 269 270
nan nan nan nan nan nan nan nan nan nan nan nan nan nan nan nan 257 nan nan nan nan nan nan nan nan nan nan nan nan nan nan nan nan nan nan nan 246 247 248 248 246 nan 247 248 248 248 247 nan 248 249 nan nan nan nan nan nan nan nan nan nan nan nan nan nan nan nan nan nan nan nan nan nan nan nan nan nan 261 262 263 265 267 269 270 270 270 272
nan nan nan nan nan nan nan nan nan nan nan nan nan nan nan nan nan nan nan nan nan nan nan nan nan nan nan nan nan nan nan nan nan nan nan nan nan nan nan nan nan nan nan 249 250 251 nan nan nan nan nan nan nan nan nan nan nan nan nan nan nan nan nan nan nan nan nan nan nan nan nan nan nan nan nan nan nan nan 266 269 271 274 274 274 274 272
nan nan nan nan nan nan nan 251 nan nan nan nan nan nan nan nan nan nan nan nan nan nan nan nan nan nan nan nan nan nan nan nan nan nan nan nan nan nan nan nan nan nan nan nan nan nan nan nan nan nan nan nan nan nan nan nan nan nan nan nan nan nan nan nan nan nan nan nan nan nan nan nan nan nan nan nan nan nan nan nan 272 272 274 275 274 274
nan nan nan nan nan nan nan nan nan nan nan nan nan nan nan nan nan nan nan nan nan nan nan nan nan nan nan nan nan nan nan nan nan nan nan nan nan nan nan nan nan nan nan nan nan nan nan nan nan nan nan nan nan nan nan nan nan nan nan nan nan nan nan nan nan nan nan nan nan nan nan nan nan nan nan nan nan nan nan nan 270 271 271 273 275 275
nan nan nan nan nan nan nan nan nan nan nan nan nan nan nan nan nan nan nan nan nan nan nan nan nan nan nan nan nan nan nan nan nan nan nan nan nan nan nan nan nan nan nan nan nan nan nan nan nan nan nan nan nan nan nan nan nan nan nan nan nan nan nan nan nan nan nan nan nan nan nan nan nan nan nan nan nan nan nan nan nan 270 272 272 273 274
nan nan nan nan nan nan nan nan nan nan nan nan nan nan nan nan nan nan nan nan nan nan nan nan nan nan nan nan nan nan nan nan nan nan nan nan nan nan nan nan nan nan nan nan nan nan nan nan nan nan nan nan nan nan nan nan nan nan nan nan nan nan nan nan nan nan nan nan nan nan nan nan nan nan nan nan nan nan nan nan nan nan nan 273 275 275
nan nan nan nan nan nan nan nan nan nan nan nan nan nan nan nan nan nan nan nan nan nan nan nan nan nan nan nan nan nan nan nan nan nan nan nan nan nan nan nan nan nan nan nan nan nan nan nan nan nan nan nan nan nan nan nan nan nan nan nan nan nan nan nan nan nan nan nan nan nan nan nan nan nan nan nan nan nan nan nan nan nan nan nan 278 278
nan nan nan nan nan nan nan nan nan nan nan nan nan nan nan nan nan nan nan nan nan nan nan nan nan nan nan nan nan nan nan nan nan nan nan nan nan nan nan nan nan nan nan nan nan nan nan nan nan nan nan nan nan nan nan nan nan nan nan nan nan nan nan nan nan nan nan nan nan nan nan nan nan nan nan nan nan nan nan nan nan nan nan 279 280 280
nan nan nan nan nan nan nan nan nan nan nan nan nan nan nan nan nan nan nan nan nan nan nan nan nan nan nan nan nan nan nan nan nan nan nan nan nan nan nan nan nan nan nan nan nan nan nan nan nan nan nan nan nan nan nan nan nan nan nan nan nan nan nan nan nan nan nan nan nan nan nan nan nan nan nan nan nan nan nan nan nan nan nan nan 278 279
nan nan nan nan nan nan nan nan nan nan nan nan nan nan nan nan nan nan nan nan nan nan nan nan nan nan nan nan nan nan nan nan nan nan nan nan nan nan nan nan nan nan nan nan nan nan nan nan nan nan nan nan nan nan nan nan nan nan nan nan nan nan nan nan nan nan nan nan nan nan nan nan nan nan nan nan nan nan nan nan nan nan nan nan nan 277
nan nan nan nan nan nan nan nan nan nan nan nan nan nan nan nan nan nan nan nan nan nan nan nan nan nan nan nan nan nan nan nan nan nan nan nan nan nan nan nan nan nan nan nan nan nan nan nan nan nan nan nan nan nan nan nan nan nan nan nan nan nan nan nan nan nan nan nan nan nan nan nan nan nan nan nan nan nan nan nan nan nan nan nan nan nan
nan nan nan nan nan nan nan nan nan nan nan nan nan nan nan nan nan nan nan nan nan nan nan nan nan nan nan nan nan nan nan nan nan nan nan nan nan nan nan nan nan nan nan nan nan nan nan nan nan nan nan nan nan nan nan nan nan nan nan nan nan nan nan nan nan nan nan nan nan nan nan nan nan nan nan nan nan nan nan nan nan nan nan nan nan nan
nan nan nan nan nan nan nan nan nan nan nan nan nan nan nan nan nan nan nan nan nan nan nan nan nan nan nan nan nan nan nan nan nan nan nan nan nan nan nan nan nan nan nan nan nan nan nan nan nan nan nan nan nan nan nan nan nan nan nan nan nan nan nan nan nan nan nan nan nan nan nan nan nan nan nan nan nan nan nan nan nan nan nan nan nan nan
nan nan nan nan nan nan nan nan nan nan nan nan nan nan nan nan nan nan nan nan nan nan nan nan nan nan nan nan nan nan nan nan nan nan nan nan nan nan nan nan nan nan nan nan nan nan nan nan nan nan nan nan nan nan nan nan nan nan nan nan nan nan nan nan nan nan nan nan nan nan nan nan nan nan nan nan nan nan nan nan nan nan nan nan nan nan
nan nan nan nan nan nan nan nan nan nan nan nan nan nan nan nan nan nan nan nan nan nan nan nan nan nan nan nan nan nan nan nan nan nan nan nan nan nan nan nan nan nan nan nan nan nan nan nan nan nan nan nan nan nan nan nan nan nan nan nan nan nan nan nan nan nan nan nan nan nan nan nan nan nan nan nan nan nan nan nan nan nan nan nan nan nan
nan nan nan nan nan nan nan nan nan nan nan nan nan nan nan nan nan nan nan nan nan nan nan nan nan nan nan nan nan nan nan nan nan nan nan nan nan nan nan nan nan nan nan nan nan nan nan nan nan nan nan nan nan nan nan nan nan nan nan nan nan nan nan nan nan nan nan nan nan nan nan nan nan nan nan nan nan nan nan nan nan nan nan nan nan nan